Previsão horária em Abadia

Hoje, 30 Setembro, Quarta-feira

Tempo Temperatura Precipitação Vento Pressão Humidade
00:00 +20°C° 0 mm 1 m/s 721 mmHg 37%
01:00 +19°C° 0 mm 1 m/s 721 mmHg 38%
02:00 +19°C° 0 mm 1 m/s 721 mmHg 38%
03:00 +19°C° 0 mm 1 m/s 721 mmHg 39%
04:00 +18°C° 0 mm 1 m/s 721 mmHg 40%
05:00 +18°C° 0 mm 1 m/s 721 mmHg 40%
06:00 +18°C° 0 mm 1 m/s 721 mmHg 41%
07:00 +18°C° 0 mm 0 m/s 721 mmHg 38%
08:00 +20°C° 0 mm 0 m/s 721 mmHg 34%
09:00 +22°C° 0 mm 0 m/s 722 mmHg 31%
10:00 +26°C° 0 mm 1 m/s 722 mmHg 29%
11:00 +27°C° 0 mm 2 m/s 721 mmHg 26%
12:00 +28°C° 0 mm 2 m/s 721 mmHg 24%
13:00 +29°C° 0 mm 3 m/s 721 mmHg 23%
14:00 +29°C° 0 mm 3 m/s 720 mmHg 23%
15:00 +29°C° 0 mm 3 m/s 720 mmHg 22%
16:00 +27°C° 0 mm 3 m/s 720 mmHg 26%
17:00 +25°C° 0 mm 2 m/s 720 mmHg 31%
18:00 +23°C° 0 mm 2 m/s 719 mmHg 35%
19:00 +21°C° 0 mm 2 m/s 720 mmHg 40%
20:00 +19°C° 0 mm 2 m/s 720 mmHg 45%
21:00 +18°C° 0 mm 2 m/s 720 mmHg 50%
22:00 +18°C° 0 mm 2 m/s 720 mmHg 53%
23:00 +17°C° 0 mm 2 m/s 720 mmHg 55%

Amanhã, 1 Outubro, Quinta-feira

Tempo Temperatura Precipitação Vento Pressão Humidade
00:00 +16°C° 0 mm 2 m/s 720 mmHg 58%
01:00 +16°C° 0 mm 2 m/s 720 mmHg 58%
02:00 +15°C° 0 mm 2 m/s 719 mmHg 57%
03:00 +15°C° 0 mm 2 m/s 719 mmHg 57%
04:00 +14°C° 0 mm 2 m/s 719 mmHg 59%
05:00 +14°C° 0 mm 2 m/s 719 mmHg 61%
06:00 +13°C° 0 mm 2 m/s 719 mmHg 63%
07:00 +16°C° 0 mm 2 m/s 719 mmHg 61%
08:00 +18°C° 0 mm 2 m/s 720 mmHg 60%
09:00 +20°C° 0 mm 2 m/s 720 mmHg 58%
10:00 +21°C° 0 mm 2 m/s 720 mmHg 56%
11:00 +22°C° 0 mm 3 m/s 719 mmHg 53%
12:00 +24°C° 0 mm 3 m/s 719 mmHg 51%
13:00 +24°C° 0 mm 3 m/s 719 mmHg 50%
14:00 +23°C° 0 mm 4 m/s 718 mmHg 50%
15:00 +23°C° 0 mm 4 m/s 718 mmHg 49%
16:00 +22°C° 0 mm 3 m/s 717 mmHg 54%
17:00 +21°C° 0 mm 3 m/s 717 mmHg 58%
18:00 +19°C° 0 mm 3 m/s 716 mmHg 63%
19:00 +18°C° 0 mm 3 m/s 716 mmHg 68%
20:00 +17°C° 0 mm 2 m/s 716 mmHg 73%
21:00 +16°C° 0 mm 2 m/s 717 mmHg 78%
22:00 +15°C° 0 mm 2 m/s 716 mmHg 80%
23:00 +15°C° 0 mm 2 m/s 715 mmHg 83%

Depois de amanhã, 2 Outubro, Sexta-feira

Tempo Temperatura Precipitação Vento Pressão Humidade
00:00 +14°C° 0 mm 2 m/s 714 mmHg 85%
01:00 +14°C° 0 mm 2 m/s 714 mmHg 83%
02:00 +13°C° 0 mm 3 m/s 713 mmHg 80%
03:00 +13°C° 0 mm 3 m/s 712 mmHg 78%
04:00 +13°C° 0.3 mm 3 m/s 711 mmHg 82%
05:00 +13°C° 0.3 mm 4 m/s 711 mmHg 87%
06:00 +13°C° 0.3 mm 5 m/s 710 mmHg 91%
07:00 +14°C° 0.5 mm 5 m/s 710 mmHg 91%
08:00 +14°C° 0.5 mm 6 m/s 710 mmHg 90%
09:00 +15°C° 0.5 mm 7 m/s 710 mmHg 89%
10:00 +14°C° 1 mm 6 m/s 710 mmHg 85%
11:00 +13°C° 1 mm 6 m/s 710 mmHg 82%
12:00 +13°C° 1 mm 5 m/s 710 mmHg 79%
13:00 +13°C° 0.1 mm 6 m/s 710 mmHg 68%
14:00 +14°C° 0.1 mm 6 m/s 711 mmHg 58%
15:00 +15°C° 0.1 mm 6 m/s 711 mmHg 47%
16:00 +13°C° 0.1 mm 6 m/s 711 mmHg 50%
17:00 +12°C° 0.1 mm 5 m/s 712 mmHg 53%
18:00 +11°C° 0.1 mm 4 m/s 712 mmHg 57%
19:00 +11°C° 0 mm 3 m/s 713 mmHg 62%
20:00 +10°C° 0 mm 3 m/s 713 mmHg 67%
21:00 +9°C° 0 mm 3 m/s 714 mmHg 72%
22:00 +8°C° 0 mm 3 m/s 714 mmHg 75%
23:00 +8°C° 0 mm 2 m/s 714 mmHg 79%

3 Outubro, Sábado

Tempo Temperatura Precipitação Vento Pressão Humidade
00:00 +7°C° 0 mm 2 m/s 715 mmHg 82%
01:00 +7°C° 0 mm 2 m/s 715 mmHg 83%
02:00 +7°C° 0 mm 2 m/s 715 mmHg 84%
03:00 +7°C° 0 mm 2 m/s 715 mmHg 85%
04:00 +6°C° 0 mm 2 m/s 715 mmHg 86%
05:00 +6°C° 0 mm 2 m/s 716 mmHg 87%
06:00 +6°C° 0 mm 2 m/s 716 mmHg 88%
07:00 +8°C° 0 mm 2 m/s 716 mmHg 79%
08:00 +9°C° 0 mm 2 m/s 717 mmHg 71%
09:00 +12°C° 0 mm 2 m/s 717 mmHg 62%
10:00 +12°C° 0 mm 3 m/s 717 mmHg 57%
11:00 +13°C° 0 mm 3 m/s 717 mmHg 52%
12:00 +16°C° 0 mm 3 m/s 717 mmHg 46%
13:00 +16°C° 0 mm 3 m/s 717 mmHg 44%
14:00 +17°C° 0 mm 3 m/s 716 mmHg 42%
15:00 +18°C° 0 mm 4 m/s 716 mmHg 40%
16:00 +16°C° 0 mm 3 m/s 716 mmHg 46%
17:00 +14°C° 0 mm 3 m/s 716 mmHg 52%
18:00 +13°C° 0 mm 3 m/s 716 mmHg 57%
19:00 +13°C° 0 mm 2 m/s 716 mmHg 64%
20:00 +12°C° 0 mm 2 m/s 716 mmHg 70%
21:00 +10°C° 0 mm 2 m/s 717 mmHg 77%
22:00 +9°C° 0 mm 2 m/s 716 mmHg 78%
23:00 +10°C° 0 mm 1 m/s 716 mmHg 80%

4 Outubro, Domingo

Tempo Temperatura Precipitação Vento Pressão Humidade
00:00 +10°C° 0 mm 1 m/s 716 mmHg 82%
01:00 +9°C° 0 mm 2 m/s 715 mmHg 83%
02:00 +10°C° 0 mm 2 m/s 715 mmHg 83%
03:00 +10°C° 0 mm 2 m/s 715 mmHg 84%
04:00 +10°C° 0.2 mm 2 m/s 715 mmHg 87%
05:00 +10°C° 0.2 mm 2 m/s 715 mmHg 90%
06:00 +12°C° 0.2 mm 2 m/s 715 mmHg 93%
07:00 +13°C° 0.1 mm 2 m/s 716 mmHg 84%
08:00 +13°C° 0.1 mm 3 m/s 716 mmHg 75%
09:00 +14°C° 0.1 mm 3 m/s 716 mmHg 66%
10:00 +16°C° 0 mm 3 m/s 717 mmHg 62%
11:00 +15°C° 0 mm 4 m/s 717 mmHg 57%
12:00 +17°C° 0 mm 4 m/s 717 mmHg 53%
13:00 +17°C° 0 mm 4 m/s 717 mmHg 52%
14:00 +17°C° 0 mm 4 m/s 716 mmHg 52%
15:00 +17°C° 0 mm 4 m/s 716 mmHg 52%
16:00 +15°C° 0 mm 4 m/s 716 mmHg 56%
17:00 +14°C° 0 mm 3 m/s 717 mmHg 60%
18:00 +13°C° 0 mm 3 m/s 717 mmHg 64%
19:00 +13°C° 0 mm 3 m/s 717 mmHg 69%
20:00 +12°C° 0 mm 3 m/s 718 mmHg 73%
21:00 +12°C° 0 mm 2 m/s 718 mmHg 78%
22:00 +12°C° 0.1 mm 2 m/s 718 mmHg 79%
23:00 +12°C° 0.1 mm 2 m/s 719 mmHg 80%

5 Outubro, Segunda-feira

Tempo Temperatura Precipitação Vento Pressão Humidade
00:00 +12°C° 0.1 mm 2 m/s 719 mmHg 82%
01:00 +10°C° 0.1 mm 2 m/s 719 mmHg 83%
02:00 +10°C° 0.1 mm 2 m/s 718 mmHg 85%
03:00 +10°C° 0.1 mm 2 m/s 718 mmHg 86%
04:00 +9°C° 0 mm 2 m/s 719 mmHg 87%
05:00 +9°C° 0 mm 2 m/s 719 mmHg 89%
06:00 +8°C° 0 mm 2 m/s 719 mmHg 90%
07:00 +10°C° 0 mm 2 m/s 719 mmHg 81%
08:00 +11°C° 0 mm 3 m/s 720 mmHg 73%
09:00 +13°C° 0 mm 3 m/s 720 mmHg 64%
10:00 +14°C° 0 mm 3 m/s 720 mmHg 59%
11:00 +16°C° 0 mm 3 m/s 720 mmHg 55%
12:00 +17°C° 0 mm 4 m/s 720 mmHg 50%
13:00 +17°C° 0 mm 4 m/s 720 mmHg 48%
14:00 +18°C° 0 mm 4 m/s 720 mmHg 46%
15:00 +18°C° 0 mm 4 m/s 720 mmHg 45%
16:00 +17°C° 0 mm 4 m/s 720 mmHg 52%
17:00 +14°C° 0 mm 3 m/s 720 mmHg 59%
18:00 +13°C° 0 mm 3 m/s 720 mmHg 66%
19:00 +12°C° 0 mm 3 m/s 720 mmHg 71%
20:00 +12°C° 0 mm 2 m/s 720 mmHg 75%
21:00 +10°C° 0 mm 2 m/s 721 mmHg 80%
22:00 +10°C° 0 mm 2 m/s 721 mmHg 81%
23:00 +10°C° 0 mm 2 m/s 721 mmHg 83%
Mostrar mais